| time (UTC) | temp F | wind direction | speed MPH | gust MPH | rain 1hr in | rain 24hr in | rain mn in | humidity % | barometer mb |
| 20260902171516 | 71 | 253 | 3.0 | 11.0 | 0.00 | 0.00 | 0.00 | 23 | 1011.7 |
| 20260902170516 | 71 | 247 | 3.0 | 8.0 | 0.00 | 0.00 | 0.00 | 25 | 1011.7 |
| 20260902165536 | 71 | 236 | 3.0 | 7.0 | 0.00 | 0.00 | 0.00 | 24 | 1011.6 |
| 20260902164516 | 70 | 280 | 3.0 | 8.0 | 0.00 | 0.00 | 0.00 | 25 | 1011.5 |
| 20260902163536 | 70 | 267 | 2.0 | 3.0 | 0.00 | 0.00 | 0.00 | 24 | 1011.6 |
| 20260902162515 | 70 | 255 | 3.0 | 9.0 | 0.00 | 0.00 | 0.00 | 26 | 1011.6 |
| 20260902161516 | 68 | 219 | 3.0 | 8.0 | 0.00 | 0.00 | 0.00 | 25 | 1011.6 |
| 20260902160516 | 67 | 264 | 3.0 | 6.0 | 0.00 | 0.00 | 0.00 | 25 | 1011.5 |
| 20260902132514 | 62 | 32 | 2.0 | 8.0 | 0.00 | 0.00 | 0.00 | 37 | 1009.1 |
| 20260902131514 | 62 | 31 | 3.0 | 4.0 | 0.00 | 0.00 | 0.00 | 37 | 1009.3 |
| 20260902130514 | 62 | 31 | 3.0 | 4.0 | 0.00 | 0.00 | 0.00 | 38 | 1009.1 |
| 20260902125514 | 62 | 37 | 2.0 | 4.0 | 0.00 | 0.00 | 0.00 | 40 | 1009.2 |
| 20260902124513 | 62 | 339 | 0.0 | 0.0 | 0.00 | 0.00 | 0.00 | 38 | 1008.9 |
| 20260902123514 | 62 | 339 | 0.0 | 0.0 | 0.00 | 0.00 | 0.00 | 40 | 1008.6 |
| 20260902122514 | 63 | 339 | 0.0 | 3.0 | 0.00 | 0.00 | 0.00 | 39 | 1008.7 |
| 20260902121514 | 63 | 339 | 2.0 | 4.0 | 0.00 | 0.00 | 0.00 | 36 | 1008.3 |
| 20260902120533 | 63 | 339 | 3.0 | 4.0 | 0.00 | 0.00 | 0.00 | 37 | 1008.3 |
| 20260902115513 | 62 | 334 | 3.0 | 3.0 | 0.00 | 0.00 | 0.00 | 37 | 1008.5 |
| 20260902114513 | 62 | 23 | 1.0 | 4.0 | 0.00 | 0.00 | 0.00 | 40 | 1008.9 |
| 20260902113513 | 62 | 23 | 0.0 | 4.0 | 0.00 | 0.00 | 0.00 | 43 | 1008.8 |
| 20260902112513 | 62 | 1 | 0.0 | 3.0 | 0.00 | 0.00 | 0.00 | 45 | 1008.6 |
| 20260902111513 | 62 | 305 | 0.0 | 5.0 | 0.00 | 0.00 | 0.00 | 37 | 1008.1 |
| 20260902083511 | 58 | 347 | 0.0 | 0.0 | 0.00 | 0.00 | 0.00 | 66 | 1006.5 |
| 20260902082511 | 58 | 347 | 0.0 | 0.0 | 0.00 | 0.00 | 0.00 | 66 | 1006.5 |
| 20260902081512 | 58 | 347 | 0.0 | 0.0 | 0.00 | 0.00 | 0.00 | 66 | 1006.3 |
| 20260902080511 | 58 | 347 | 0.0 | 0.0 | 0.00 | 0.00 | 0.00 | 67 | 1006.2 |
| 20260902075531 | 58 | 347 | 0.0 | 0.0 | 0.00 | 0.00 | 0.00 | 67 | 1006.0 |
| 20260902074511 | 58 | 347 | 0.0 | 0.0 | 0.00 | 0.00 | 0.00 | 67 | 1006.0 |
| 20260902073511 | 58 | 347 | 0.0 | 0.0 | 0.00 | 0.00 | 0.00 | 66 | 1005.8 |
| 20260902072511 | 59 | 347 | 0.0 | 0.0 | 0.00 | 0.00 | 0.00 | 66 | 1005.8 |
| 20260902071512 | 59 | 347 | 0.0 | 0.0 | 0.00 | 0.00 | 0.00 | 64 | 1005.7 |
| 20260902070511 | 59 | 347 | 0.0 | 0.0 | 0.00 | 0.00 | 0.00 | 65 | 1005.7 |
| 20260902042509 | 66 | 347 | 0.0 | 0.0 | 0.00 | 0.00 | 0.00 | 49 | 1005.7 |
| 20260902041509 | 67 | 347 | 0.0 | 2.0 | 0.00 | 0.00 | 0.00 | 48 | 1005.7 |
| 20260902040509 | 68 | 347 | 0.0 | 2.0 | 0.00 | 0.00 | 0.00 | 47 | 1005.7 |
| 20260902035509 | 68 | 347 | 0.0 | 2.0 | 0.00 | 0.00 | 0.00 | 46 | 1005.8 |
| 20260902034509 | 69 | 347 | 1.0 | 3.0 | 0.00 | 0.00 | 0.00 | 46 | 1005.8 |
| 20260902033509 | 70 | 348 | 0.0 | 0.0 | 0.00 | 0.00 | 0.00 | 41 | 1005.7 |
| 20260902032509 | 71 | 348 | 0.0 | 1.0 | 0.00 | 0.00 | 0.00 | 40 | 1005.5 |
| 20260902031508 | 71 | 348 | 1.0 | 3.0 | 0.00 | 0.00 | 0.00 | 40 | 1005.4 |
| 20260902030509 | 72 | 348 | 2.0 | 3.0 | 0.00 | 0.00 | 0.00 | 39 | 1005.4 |
| 20260902025508 | 73 | 348 | 1.0 | 3.0 | 0.00 | 0.00 | 0.00 | 39 | 1005.4 |
| 20260902024508 | 73 | 348 | 1.0 | 3.0 | 0.00 | 0.00 | 0.00 | 38 | 1005.4 |
| 20260902023508 | 74 | 348 | 1.0 | 3.0 | 0.00 | 0.00 | 0.00 | 37 | 1005.5 |
| 20260902022508 | 75 | 348 | 2.0 | 3.0 | 0.00 | 0.00 | 0.00 | 37 | 1005.5 |
| 20260902021508 | 76 | 348 | 1.0 | 3.0 | 0.00 | 0.00 | 0.00 | 36 | 1005.6 |
| 20260901233507 | 82 | 257 | 2.0 | 5.0 | 0.00 | 0.00 | 0.00 | 25 | 1006.3 |
| 20260901232506 | 83 | 270 | 4.0 | 10.0 | 0.00 | 0.00 | 0.00 | 25 | 1006.5 |
| 20260901231506 | 83 | 316 | 3.0 | 9.0 | 0.00 | 0.00 | 0.00 | 27 | 1006.5 |
| 20260901230506 | 84 | 324 | 4.0 | 8.0 | 0.00 | 0.00 | 0.00 | 25 | 1006.6 |
| 20260901225526 | 84 | 316 | 7.0 | 9.0 | 0.00 | 0.00 | 0.00 | 26 | 1006.7 |
| 20260901224506 | 85 | 287 | 4.0 | 9.0 | 0.00 | 0.00 | 0.00 | 26 | 1007.0 |
| 20260901223506 | 85 | 287 | 3.0 | 7.0 | 0.00 | 0.00 | 0.00 | 27 | 1007.1 |
| 20260901222506 | 85 | 293 | 2.0 | 9.0 | 0.00 | 0.00 | 0.00 | 28 | 1007.1 |
| 20260901221506 | 86 | 317 | 5.0 | 7.0 | 0.00 | 0.00 | 0.00 | 26 | 1007.1 |
| 20260901220506 | 85 | 306 | 0.0 | 3.0 | 0.00 | 0.00 | 0.00 | 25 | 1007.2 |